FENGYUN 1C DEB, 36272

Orbit data source: Space-Track

FENGYUN 1C DEB, 36272 is space debris in SSO originally from a launch on Mon, 10 May 1999 UTC launched from the Taiyaun Space Center, China (TSC). Fengyun 1C debris stems from the Chinese weather satellite Fengyun-1C, which was intentionally destroyed by a Chinese anti-satellite missile in 2007. This event dramatically increased the amount of space debris, with thousands of trackable fragments posing hazards to satellites and human spaceflight. The Fengyun 1C debris cloud has become a focal point in discussions about space sustainability and the need for international regulations to prevent the creation of new debris.

Loading next visibility...
Identifier
36272, 1999-025DWZ
Orbit
SSO
Country
Flag of CNCN / PRC
Related business
Manufacturer
Unknown
Mission
Spacecraft
Bus & Motor
Unknown
Mass
Unknown
Launch date (UTC)
1999-05-10 (27 years ago)
Launch vehicle
Unknown
Launch site
Taiyaun Space Center, China (TSC)
Object type
Payload
Rocket body
Debris
Shape & HBR
Unknown shape, 0.1 m
Radar Cross Section
Small (<0.1 m²)

Expand to show TLE details & history
Last TLE update: 5 days ago

TLE from 5 days ago
0 FENGYUN 1C DEB
1 36272U 99025DWZ 25345.37144422  .00001870  00000-0  82727-3 0  9996
2 36272  99.1372 221.6218 0167918 272.0385  86.1567 14.17247938635973
Epoch: 2025-12-11T08:54Z
TLE epoch observation values (Epoch: 2025-12-11T08:54:52.780Z)
Latitude
-0.00008°
Longitude
7.57352°
Altitude
831.481 km
Speed
7.44 km/s
True Right ascension
14h 46m 29s
True Declination
0° 00' 00"
Sunlit
Object was in daylight at epoch
Visualization orbit readout
Latitude
Unknown
Longitude
Unknown
Altitude
Unknown
Speed
Unknown
Apparent Right ascension
Unknown
Apparent Declination
Unknown
Sunlit
N/A
Visualization observer readout
Local Sidereal Time
23:54:14
Azimuth
Unknown
Elevation
Unknown
Doppler factor
Unknown
Orbital elements
Apogee altitude
952.926 km
Perigee altitude
710.788 km
Semi-major axis
7,209.994 km
Eccentricity
0.01679
Inclination
99.1372°
RAAN
221.6218°
Arg. of periapsis
272.0385°
True anomaly
88.07892°
Mean anomaly
86.1567°
Eccentric anomaly
87.11758°
Mean motion
3.5452 °/min
Orbital period
101.55 mins
BSTAR
0.00082727
Loading maneuver chart data...
Computing Atmospheric mass density...

Documentation

Showing up to 5 results
|